Location: Santa Teresa Spring
(37.2333°N, 121.7000°W)
Time: 05:15:52
(UTC-07:00)

ISS - Visible Passes

Search period start: 28 March 2015 00:00
Search period end: 07 April 2015 00:00
Orbit: 396 x 406 km, 51.6° (Epoch: 28 March)

Date Brightness Start Highest point End Pass type
(mag) Time Alt. Az. Time Alt. Az. Time Alt. Az.
28 Mar -1.4 05:50:44 10° NNW 05:53:35 28° NNE 05:56:26 10° E visible
29 Mar -0.7 04:58:47 15° N 05:00:01 17° NNE 05:02:18 10° ENE visible
30 Mar -3.0 05:40:37 14° NW 05:43:17 63° NE 05:46:29 10° ESE visible
31 Mar -1.5 04:50:04 31° NE 04:50:04 31° NE 04:52:44 10° E visible
31 Mar -2.0 06:23:28 10° WNW 06:26:04 22° SW 06:28:37 10° S visible
01 Apr -3.2 05:32:27 46° WSW 05:32:44 48° SW 05:35:50 10° SSE visible
02 Apr -0.3 04:42:29 10° SE 04:42:29 10° SE 04:42:30 10° SE visible
02 Apr -2.1 21:13:16 10° SW 21:15:12 33° SW 21:15:12 33° SW visible
03 Apr -2.6 20:20:06 10° SSW 20:23:04 33° SE 20:25:19 15° ENE visible
03 Apr -0.4 21:56:45 10° W 21:57:59 18° WNW 21:57:59 18° WNW visible
04 Apr -2.2 21:02:40 10° WSW 21:05:48 43° NW 21:07:45 20° NNE visible
05 Apr -3.4 20:08:55 10° SW 20:12:10 88° SSE 20:15:27 10° NE visible
05 Apr -0.4 21:47:02 10° WNW 21:48:58 14° NNW 21:49:48 13° N visible
06 Apr -0.9 20:52:27 10° W 20:55:06 22° NNW 20:57:44 10° NNE visible
